Wind_Speed
29 29 29 30 31 32 32 33 34 34 35 36 37 38 39 39 40 40 41 42 43 43 44 44 45 45 45 46 46 46 46 46 46 45 45 45 45 45 45 44 44 44 44
29 30 30 31 32 33 34 34 35 36 37 38 39 40 41 42 43 43 44 45 46 47 47 48 49 50 50 50 50 51 50 50 50 50 50 49 49 49 49 48 48 48 48
30 30 31 32 33 33 34 35 36 37 38 39 39 41 42 43 43 44 46 46 48 49 50 51 52 53 54 54 54 55 55 55 55 55 54 54 54 53 53 52 52 51 51
31 31 32 32 33 34 34 35 36 37 38 39 40 41 42 43 44 45 46 47 48 49 50 52 53 54 55 56 57 57 58 58 58 58 58 57 57 57 56 56 55 55 54
32 32 32 33 34 34 34 35 36 37 38 39 40 41 42 43 44 45 46 48 49 50 51 52 53 55 56 57 57 58 59 59 60 60 60 60 60 60 60 59 59 58 57
33 33 34 34 34 35 35 36 37 38 39 40 41 41 42 43 44 45 47 48 49 50 51 52 53 55 56 58 59 60 60 61 61 62 62 62 62 62 62 62 62 61 60
33 33 33 33 34 34 35 36 37 38 40 41 42 42 42 43 45 46 47 48 49 51 52 53 55 56 58 59 61 62 63 64 64 65 65 65 65 65 65 65 65 64 64
32 32 33 34 35 36 37 38 39 40 41 43 44 45 44 44 46 48 49 50 52 53 55 56 58 60 61 62 63 65 66 68 68 69 69 69 69 69 69 69 68 68 67
33 34 35 36 37 38 39 40 42 43 44 45 48 50 51 51 51 51 53 55 57 58 59 60 62 64 66 67 68 69 70 72 73 73 74 74 74 74 73 73 73 72 71
36 36 37 38 39 40 42 44 46 47 49 50 52 54 57 58 59 58 57 59 61 63 64 66 67 68 70 71 73 75 76 77 78 79 79 79 79 79 78 77 77 76 75
38 39 40 41 43 45 47 48 50 52 54 55 57 59 60 62 64 66 65 64 65 66 69 71 72 74 75 76 77 79 80 81 82 83 84 84 84 84 83 83 82 81 80
41 42 44 45 47 49 51 52 54 56 58 60 61 63 65 66 68 70 72 71 72 71 73 74 76 78 79 80 81 82 83 84 85 87 88 88 89 89 88 88 87 86 84
44 45 47 49 50 52 54 56 58 59 61 63 65 67 68 70 72 74 76 77 78 77 78 79 80 82 83 85 85 85 86 86 87 88 89 90 91 92 92 92 91 90 89
46 48 50 52 54 55 57 59 61 62 64 66 68 70 72 74 76 78 80 82 83 83 82 82 83 84 86 87 88 88 88 88 88 88 89 90 90 92 92 93 93 93 92
49 51 53 55 56 58 60 62 63 65 67 69 71 73 75 77 79 81 83 85 87 88 86 83 84 84 86 86 86 87 86 86 85 84 84 84 85 87 89 90 91 92 93
52 54 56 57 59 61 63 65 67 69 71 73 75 76 78 80 82 84 85 86 87 89 88 83 83 82 82 81 80 80 79 79 78 76 75 75 76 77 79 81 83 85 87
55 57 58 60 62 64 66 68 70 72 74 76 78 80 81 83 84 85 85 85 85 84 85 80 77 75 75 74 72 71 69 68 67 67 67 67 68 69 70 71 73 75 78
57 60 61 63 65 67 69 71 73 75 77 79 81 82 83 84 84 83 82 81 79 78 77 74 70 68 67 67 65 64 62 61 61 61 61 61 62 63 64 65 65 67 69
60 62 64 66 68 70 72 75 77 78 80 82 83 84 83 83 82 79 77 75 72 71 69 68 64 61 59 58 57 56 56 56 55 56 56 56 56 57 58 59 59 60 61
63 64 67 69 71 73 75 77 79 81 82 83 83 83 81 79 77 74 71 68 66 64 62 61 58 54 52 52 52 51 50 50 50 51 52 52 52 52 53 54 55 55 56
65 67 69 71 74 76 78 80 82 83 83 82 81 79 76 73 70 67 64 61 59 58 56 55 52 50 48 48 48 48 47 47 47 48 49 49 49 49 49 50 51 51 52
68 69 72 74 76 78 80 82 84 84 83 80 77 73 69 65 62 60 57 56 54 54 52 50 49 47 46 45 45 46 46 45 44 44 46 46 47 46 46 47 48 48 49
70 72 74 76 78 80 82 83 83 82 79 75 71 67 62 59 57 55 53 51 51 50 49 48 47 46 45 44 45 44 44 44 43 42 43 42 42 42 43 44 45 46 46
72 74 77 79 80 82 82 82 80 77 72 68 64 61 58 55 53 52 49 48 47 46 46 47 46 45 45 44 44 43 43 42 40 39 40 38 37 38 39 40 41 42 43
75 77 79 81 82 81 80 78 75 71 66 62 58 56 55 52 50 49 47 46 45 44 45 45 45 44 43 43 43 42 41 41 38 36 37 36 35 35 36 36 37 38 39
78 80 81 82 81 79 76 73 69 66 61 58 55 52 51 49 47 46 45 45 44 43 43 42 42 42 42 41 41 41 41 40 39 36 35 35 34 35 34 34 35 36 37
Wind_Direction
284 283 282 280 279 277 276 276 275 274 273 272 271 270 269 269 269 269 269 270 270 270 270 270 270 270 270 270 270 271 271 271 271 272 272 272 272 273 273 273 274 274 274
286 285 283 282 280 279 279 278 277 276 275 274 273 273 272 272 272 271 271 271 271 271 271 271 271 270 270 270 270 270 270 270 270 270 270 270 270 271 271 272 272 272 273
287 286 285 283 282 281 281 280 279 278 278 277 276 276 275 275 275 274 274 274 273 273 273 273 272 272 272 271 271 271 270 270 270 269 269 269 269 269 269 270 270 271 271
288 287 285 285 284 284 283 282 281 280 279 279 278 278 277 277 277 277 276 276 275 275 274 274 274 274 274 273 273 272 272 271 270 270 269 269 269 269 269 269 269 269 269
288 287 286 286 285 285 284 284 283 283 282 282 281 280 280 279 279 278 278 277 277 276 275 275 274 274 274 274 273 273 272 272 271 271 270 270 269 269 269 269 268 268 268
288 287 287 287 286 286 286 285 285 284 284 283 283 282 282 281 281 280 279 279 279 278 277 276 275 275 275 275 274 274 273 272 271 271 270 270 269 269 268 268 268 268 267
290 290 289 288 288 288 288 287 287 287 287 286 285 284 284 284 283 282 281 281 280 279 278 278 277 276 275 275 274 274 273 272 272 271 270 269 269 268 267 267 267 267 267
291 291 290 290 290 289 289 289 289 289 290 289 288 287 285 284 284 283 283 282 281 280 279 279 279 278 276 275 274 274 273 272 271 270 269 268 268 267 266 266 266 265 265
291 291 291 291 291 291 291 291 291 291 291 291 290 290 288 286 283 283 283 283 282 281 280 278 278 277 277 276 275 274 273 272 271 270 269 268 267 266 266 265 264 264 263
292 291 291 291 291 291 291 291 292 292 291 291 291 291 290 290 288 285 283 283 283 282 281 280 279 277 276 275 274 273 272 271 270 269 268 267 266 265 265 264 263 263 262
292 292 292 292 292 292 293 293 293 293 293 292 292 292 291 291 290 289 287 285 284 283 283 282 281 280 278 276 274 273 272 271 270 269 268 267 266 265 264 263 262 261 261
292 293 293 293 293 293 293 293 293 294 294 293 293 293 293 292 291 290 289 288 286 285 284 283 282 281 279 278 276 274 272 271 269 268 267 266 265 264 263 262 261 260 259
293 293 293 293 293 293 293 294 294 295 295 295 295 294 294 294 293 292 291 290 288 287 286 286 285 283 281 279 278 276 274 272 270 269 267 266 265 263 262 261 260 259 258
293 294 294 294 294 295 295 295 295 296 296 296 296 295 295 295 294 294 293 292 290 289 288 288 286 285 283 281 279 277 275 274 272 270 268 266 265 263 262 260 259 258 257
294 294 295 295 296 296 296 297 297 297 297 297 297 297 296 296 295 295 294 293 292 291 289 288 287 285 283 282 280 279 277 275 273 272 270 268 266 264 262 260 259 257 256
295 296 297 297 298 298 298 298 298 298 298 299 298 298 298 297 297 296 295 294 293 292 291 289 288 286 285 283 282 280 278 276 275 273 271 269 268 266 264 262 260 258 256
297 298 299 299 299 300 300 300 300 300 300 300 300 300 299 299 298 297 296 295 294 292 291 290 289 287 285 284 282 281 279 277 276 274 272 271 269 267 266 264 262 259 257
299 300 300 301 301 302 302 302 302 302 302 302 302 301 301 300 299 298 296 295 294 292 291 291 289 287 285 284 282 280 279 277 276 275 274 273 271 269 267 265 263 260 257
301 301 302 303 303 303 304 304 304 304 304 303 303 303 302 301 299 298 297 295 294 292 292 292 291 288 287 285 283 281 280 278 277 276 274 273 272 270 268 266 263 261 259
302 303 304 304 305 305 305 305 305 305 305 305 304 303 302 301 299 298 296 295 294 293 292 292 292 290 288 286 285 283 281 280 279 277 275 274 272 270 268 265 263 261 258
304 305 305 306 306 307 307 306 306 306 305 305 304 303 302 300 299 297 296 295 294 293 293 292 292 290 289 287 285 283 282 281 279 278 277 274 272 270 269 266 264 261 258
305 306 306 307 308 308 308 308 307 307 306 305 304 303 301 300 298 297 296 295 295 294 294 293 292 291 289 287 285 283 283 282 281 279 278 276 273 271 269 267 264 261 258
306 307 308 309 309 309 309 308 308 307 306 305 304 303 301 300 298 297 295 294 295 295 294 293 293 292 290 288 287 285 284 284 283 281 279 277 274 271 268 266 264 260 258
308 309 310 310 310 310 309 309 308 307 306 305 304 303 302 300 298 296 295 294 294 294 293 293 293 293 291 290 289 287 285 285 284 282 281 279 275 271 268 266 264 262 258
310 311 311 311 311 311 310 309 307 306 306 305 304 303 302 300 298 296 296 295 295 295 294 293 293 292 291 289 288 287 286 285 284 282 280 279 276 271 269 266 263 262 259
311 312 312 312 312 311 310 308 307 306 306 305 304 303 302 301 299 297 296 296 296 295 294 294 293 292 291 289 287 286 286 285 284 282 280 278 275 272 269 266 263 261 259
Height
5823 5822 5822 5821 5820 5819 5819 5818 5817 5817 5816 5816 5815 5815 5815 5815 5814 5814 5813 5813 5812 5811 5811 5810 5810 5809 5809 5808 5808 5807 5807 5807 5806 5806 5806 5805 5805 5805 5805 5805 5805 5805 5804
5817 5816 5815 5814 5813 5812 5811 5810 5809 5809 5808 5807 5807 5806 5806 5805 5805 5805 5804 5803 5802 5801 5800 5800 5799 5798 5798 5797 5797 5796 5796 5796 5795 5795 5795 5795 5795 5795 5794 5794 5794 5794 5794
5810 5809 5807 5806 5805 5804 5803 5802 5801 5800 5799 5799 5798 5797 5796 5796 5795 5795 5794 5793 5792 5791 5790 5788 5787 5786 5786 5785 5785 5784 5784 5783 5783 5783 5783 5783 5783 5783 5783 5783 5783 5783 5783
5803 5801 5800 5798 5797 5796 5795 5793 5792 5791 5790 5789 5789 5788 5787 5786 5785 5784 5783 5782 5781 5780 5779 5777 5776 5774 5773 5772 5772 5771 5770 5770 5770 5769 5769 5770 5770 5770 5770 5770 5770 5771 5771
5795 5794 5792 5791 5789 5788 5786 5785 5783 5782 5781 5780 5778 5778 5777 5776 5774 5773 5772 5770 5769 5768 5767 5765 5763 5761 5760 5759 5758 5757 5756 5756 5755 5755 5755 5756 5756 5756 5756 5757 5757 5757 5758
5788 5786 5785 5783 5781 5780 5778 5776 5774 5773 5771 5769 5768 5767 5766 5765 5763 5761 5760 5758 5757 5755 5753 5752 5750 5748 5746 5745 5743 5742 5741 5740 5740 5740 5740 5740 5740 5741 5741 5742 5742 5743 5744
5780 5778 5777 5775 5773 5771 5769 5767 5765 5763 5761 5759 5757 5756 5756 5754 5751 5749 5748 5746 5744 5742 5740 5738 5736 5734 5732 5730 5728 5726 5725 5724 5723 5723 5723 5723 5723 5724 5725 5725 5726 5727 5728
5773 5771 5769 5767 5765 5763 5760 5758 5756 5753 5751 5748 5745 5743 5744 5744 5741 5737 5735 5733 5731 5729 5726 5723 5721 5718 5716 5714 5712 5710 5707 5706 5705 5704 5704 5705 5705 5706 5706 5708 5709 5710 5711
5765 5763 5761 5758 5756 5754 5751 5748 5746 5743 5741 5738 5733 5730 5728 5727 5727 5726 5722 5718 5715 5713 5711 5708 5705 5702 5699 5696 5694 5691 5689 5687 5685 5684 5684 5684 5685 5686 5687 5688 5690 5691 5693
5757 5755 5752 5750 5747 5744 5741 5738 5735 5731 5728 5725 5721 5717 5713 5709 5706 5707 5708 5704 5699 5695 5692 5689 5686 5684 5680 5677 5674 5671 5667 5665 5663 5662 5661 5661 5662 5663 5665 5667 5669 5671 5673
5749 5746 5743 5740 5737 5734 5730 5727 5723 5719 5715 5711 5707 5703 5698 5693 5688 5684 5684 5685 5682 5677 5673 5668 5664 5661 5658 5654 5651 5648 5644 5641 5639 5637 5637 5637 5638 5639 5641 5643 5646 5648 5651
5740 5736 5733 5729 5726 5722 5718 5714 5710 5706 5701 5696 5691 5686 5681 5676 5671 5665 5661 5659 5657 5656 5651 5647 5642 5637 5632 5628 5625 5622 5619 5616 5613 5612 5611 5610 5611 5613 5615 5618 5620 5624 5627
5730 5726 5722 5718 5714 5710 5705 5701 5696 5691 5685 5680 5675 5669 5663 5657 5651 5644 5639 5635 5632 5631 5626 5622 5616 5610 5605 5600 5596 5593 5591 5588 5585 5584 5583 5582 5583 5584 5587 5590 5593 5597 5601
5719 5715 5711 5706 5701 5697 5691 5686 5681 5676 5669 5663 5657 5650 5644 5637 5630 5622 5615 5608 5604 5604 5602 5597 5589 5581 5575 5570 5566 5562 5561 5558 5556 5554 5553 5552 5553 5555 5557 5560 5564 5568 5573
5707 5703 5698 5693 5688 5682 5677 5671 5665 5659 5652 5646 5639 5631 5624 5616 5608 5600 5592 5583 5576 5572 5575 5572 5562 5554 5546 5541 5536 5532 5530 5528 5526 5524 5522 5522 5523 5524 5527 5530 5534 5538 5543
5695 5690 5685 5679 5673 5667 5661 5654 5648 5640 5633 5626 5618 5610 5602 5594 5585 5576 5567 5559 5549 5541 5541 5545 5534 5526 5518 5513 5508 5504 5501 5499 5497 5496 5495 5494 5495 5496 5498 5501 5505 5509 5514
5681 5676 5670 5664 5657 5651 5644 5636 5629 5621 5613 5605 5596 5587 5579 5569 5561 5551 5542 5533 5524 5514 5509 5515 5509 5500 5492 5487 5483 5479 5476 5474 5473 5472 5471 5470 5471 5472 5473 5476 5479 5483 5487
5667 5661 5654 5648 5641 5633 5625 5617 5610 5601 5592 5583 5574 5564 5554 5544 5535 5526 5516 5508 5500 5491 5483 5484 5486 5478 5471 5465 5461 5458 5456 5454 5453 5452 5450 5449 5450 5450 5451 5453 5456 5459 5463
5652 5645 5638 5631 5623 5615 5607 5598 5589 5580 5571 5561 5550 5540 5530 5519 5511 5501 5492 5485 5477 5470 5463 5459 5460 5456 5450 5445 5441 5439 5437 5435 5434 5433 5431 5431 5431 5431 5432 5433 5435 5439 5442
5637 5630 5622 5614 5605 5596 5587 5577 5568 5559 5549 5538 5527 5516 5506 5496 5487 5478 5471 5464 5457 5451 5445 5440 5438 5436 5432 5428 5424 5422 5420 5419 5417 5415 5414 5414 5413 5413 5414 5415 5417 5420 5423
5621 5613 5605 5596 5587 5577 5566 5556 5547 5537 5527 5516 5506 5494 5484 5474 5465 5457 5451 5445 5439 5433 5429 5424 5421 5419 5416 5412 5409 5406 5404 5403 5402 5400 5398 5398 5397 5397 5398 5398 5400 5402 5405
5604 5596 5587 5578 5568 5557 5546 5534 5523 5514 5504 5493 5483 5474 5464 5455 5447 5440 5433 5427 5422 5417 5413 5408 5405 5403 5401 5397 5394 5391 5389 5388 5388 5387 5383 5383 5382 5382 5382 5383 5384 5386 5389
5588 5579 5569 5559 5548 5537 5524 5513 5501 5491 5482 5471 5462 5453 5446 5438 5430 5424 5418 5413 5408 5403 5398 5394 5390 5388 5385 5383 5379 5377 5375 5373 5372 5371 5368 5368 5367 5367 5367 5367 5369 5371 5374
5570 5560 5550 5539 5528 5516 5503 5491 5480 5470 5461 5452 5443 5435 5428 5422 5414 5408 5403 5399 5395 5390 5385 5380 5377 5374 5371 5368 5365 5363 5360 5359 5358 5357 5354 5354 5354 5354 5354 5354 5355 5357 5360
5552 5541 5530 5519 5507 5496 5482 5470 5459 5451 5443 5435 5427 5419 5411 5406 5400 5393 5389 5385 5382 5377 5372 5368 5364 5361 5357 5354 5351 5349 5347 5345 5345 5344 5342 5341 5342 5341 5342 5343 5343 5345 5347
5533 5522 5511 5499 5486 5475 5463 5451 5440 5432 5426 5419 5412 5404 5397 5390 5385 5379 5375 5371 5367 5364 5359 5355 5352 5348 5344 5341 5339 5336 5334 5332 5331 5331 5331 5329 5329 5329 5330 5332 5332 5333 5335